TimeHST,TemperatureF,Dew PointF,Humidity,Sea Level PressureIn,VisibilityMPH,Wind Direction,Wind SpeedMPH,Gust SpeedMPH,PrecipitationIn,Events,Conditions,WindDirDegrees,DateUTC
12:54 AM,70.0,63.0,78,30.10,10.0,ENE,6.9,-,0.00,Rain,Light Rain,70,2012-11-27 10:54:00
1:54 AM,70.0,63.0,78,30.09,10.0,ENE,6.9,-,0.00,,Overcast,60,2012-11-27 11:54:00
2:54 AM,70.0,62.1,76,30.08,10.0,ENE,6.9,-,N/A,,Overcast,70,2012-11-27 12:54:00
3:54 AM,70.0,62.1,76,30.07,10.0,East,8.1,-,N/A,,Overcast,80,2012-11-27 13:54:00
4:54 AM,70.0,62.1,76,30.07,10.0,East,9.2,-,N/A,,Overcast,80,2012-11-27 14:54:00
5:54 AM,69.1,62.1,78,30.08,10.0,ENE,6.9,-,N/A,,Partly Cloudy,60,2012-11-27 15:54:00
6:54 AM,66.0,62.1,87,30.10,10.0,ENE,5.8,-,N/A,,Clear,70,2012-11-27 16:54:00
7:54 AM,69.1,62.1,78,30.11,10.0,ENE,5.8,-,N/A,,Clear,60,2012-11-27 17:54:00
8:54 AM,75.0,61.0,62,30.12,10.0,ENE,9.2,-,N/A,,Partly Cloudy,60,2012-11-27 18:54:00
9:54 AM,78.1,59.0,52,30.13,10.0,NE,15.0,21.9,N/A,,Partly Cloudy,50,2012-11-27 19:54:00
10:54 AM,80.1,57.0,45,30.11,10.0,NE,19.6,23.0,N/A,,Partly Cloudy,40,2012-11-27 20:54:00
11:54 AM,79.0,60.1,52,30.08,10.0,NE,17.3,28.8,N/A,,Partly Cloudy,50,2012-11-27 21:54:00
12:54 PM,80.1,62.1,54,30.06,10.0,NE,20.7,26.5,N/A,,Partly Cloudy,40,2012-11-27 22:54:00
1:54 PM,78.1,59.0,52,30.04,10.0,NE,19.6,25.3,N/A,,Partly Cloudy,40,2012-11-27 23:54:00
1:55 PM,78.1,59.0,52,30.04,10.0,NE,19.6,25.3,N/A,,Partly Cloudy,40,2012-11-27 23:55:00
2:54 PM,79.0,60.1,52,30.03,10.0,NE,18.4,-,0.00,,Scattered Clouds,50,2012-11-28 00:54:00
3:54 PM,78.1,59.0,52,30.03,10.0,NE,18.4,25.3,N/A,,Partly Cloudy,40,2012-11-28 01:54:00
4:54 PM,75.0,59.0,57,30.04,10.0,NE,16.1,23.0,N/A,,Scattered Clouds,50,2012-11-28 02:54:00
5:54 PM,73.0,60.1,64,30.05,10.0,NE,15.0,-,N/A,,Scattered Clouds,50,2012-11-28 03:54:00
6:54 PM,71.1,61.0,70,30.07,10.0,NE,10.4,-,N/A,,Partly Cloudy,50,2012-11-28 04:54:00
7:54 PM,71.1,61.0,70,30.09,10.0,NE,9.2,-,N/A,,Mostly Cloudy,50,2012-11-28 05:54:00
8:54 PM,70.0,60.1,71,30.09,10.0,ENE,4.6,-,N/A,,Clear,60,2012-11-28 06:54:00
9:54 PM,69.1,60.1,73,30.10,10.0,NE,6.9,-,N/A,,Partly Cloudy,50,2012-11-28 07:54:00
10:54 PM,69.1,60.1,73,30.10,10.0,ENE,6.9,-,N/A,,Mostly Cloudy,60,2012-11-28 08:54:00
11:54 PM,70.0,59.0,68,30.09,10.0,NE,6.9,-,N/A,,Clear,50,2012-11-28 09:54:00